Regional Weather Roundup
Issued by NWS Wilmington, NC

Home | Current Version | Previous Version | Text Only | Print | Product List | Glossary On
Versions: 1 2 3 4 5 6 7 8 9 10 11 12 13 14 15 16 17 18 19 20 21 22 23 24 25 26 27 28
000
ASUS42 KILM 191810
RWRILM
RWRILM
REGIONAL HOURLY WEATHER ROUNDUP
NATIONAL WEATHER SERVICE WILMINGTON NC
200 PM EDT SAT APR 19 2014

NOTE: "FAIR" INDICATES FEW OR NO CLOUDS BELOW 12,000 FEET WITH NO
SIGNIFICANT WEATHER AND/OR OBSTRUCTIONS TO VISIBILITY.

...............WFO WILMINGTON COUNTY WARNING AREA...............

......COASTAL NC AND SC COUNTIES......

CITY           SKY/WX    TMP DP  RH WIND       PRES   REMARKS
WILMINGTON     CLOUDY    59  56  89 NE18      30.02F
SOUTHPORT      CLOUDY    58  55  90 NE14G24   30.00F
N MYRTLE BEACH CLOUDY    57  53  86 N17       29.99S
MYRTLE BEACH   CLOUDY    57  54  88 NE119     29.99F

......INLAND NC AND SC COUNTIES.......

CITY           SKY/WX    TMP DP  RH WIND       PRES   REMARKS
LUMBERTON      CLOUDY    53  51  93 NE21G26   30.07S FOG
ELIZABETHTOWN  DRIZZLE   52  52  99 NE6       30.08S
WHITEVILLE     CLOUDY    54  51  91 N10G17    30.04F FOG
FLORENCE       CLOUDY    56  52  86 NE13G22   30.05S
DARLINGTON     CLOUDY    54  52  94 NE15G22   30.08S

....................REST OF NORTH CAROLINA......................

.........EASTERN NC.........

CITY           SKY/WX    TMP DP  RH WIND       PRES   REMARKS
CAPE HATTERAS  CLOUDY    53  51  93 NE14G29   30.09F
JACKSONVILLE   CLOUDY    54  54 100 N15       30.09F
MOREHEAD CITY  CLOUDY    56  53  90 NE17G32   30.05S
KENANSVILLE    CLOUDY    51  49  92 NE8       30.12S
NEW BERN       CLOUDY    55  50  83 NE12G21   30.12R
ELIZABETH CITY LGT RAIN  52  40  63 NE18      30.21R

.........CENTRAL NC.........

CITY           SKY/WX    TMP DP  RH WIND       PRES   REMARKS
RALEIGH DURHAM CLOUDY    50  46  86 NE12G20   30.17F
ROCKY MOUNT    LGT RAIN  51  47  86 NE14      30.18S
ROANOKE RAPIDS NOT AVBL
FAYETTEVILLE   CLOUDY    52  49  89 NE14G24   30.11R FOG
HOFFMAN        DRIZZLE   51  50  94 NE15G22   30.12S

.........WESTERN NC.........

CITY           SKY/WX    TMP DP  RH WIND       PRES   REMARKS
CHARLOTTE      LGT RAIN  52  50  93 N12       30.15F FOG
GREENSBORO     CLOUDY    55  41  59 NE17G24   30.18S
HICKORY        NOT AVBL
BOONE          NOT AVBL
ASHEVILLE      NOT AVBL

.....................REST OF SOUTH CAROLINA.....................

.........EASTERN SC.........

CITY           SKY/WX    TMP DP  RH WIND       PRES   REMARKS
CHARLESTON     DRIZZLE   62  58  86 N12       29.98R
BEAUFORT MCAS  CLOUDY    62  59  90 E13       29.97R
HILTON HEAD    NOT AVBL

.........CENTRAL SC.........

CITY           SKY/WX    TMP DP  RH WIND       PRES   REMARKS
COLUMBIA       LGT RAIN  57  54  89 N10G21    30.05F FOG
ORANGEBURG     CLOUDY    58  53  84 NE12G21   30.02S
SUMTER SHAW    LGT RAIN  55  54  94 NE16      30.03S FOG

.........WESTERN SC.........

CITY           SKY/WX    TMP DP  RH WIND       PRES   REMARKS
GREENVILLE     NOT AVBL
ROCK HILL      LGT RAIN  51  49  92 NE12G24   30.13F FOG
ANDERSON       LGT RAIN  55  52  89 NE10G25   30.12F FOG
CLEMSON        NOT AVBL
GREENWOOD      LGT RAIN  55  52  89 NE13      30.10F FOG


...................COASTAL AND OFFSHORE REPORTS..................

................LOCAL PIERS AND NC RESERVE................


STATION/POSITION TIME  SKY/WX   TEMP    WIND        PRES    VSBY
                                AIR SEA DIR/SP/G
                 (UTC)          (F)     (DEG/KT/KT) (MB)    (MI)
JOHNY MRCER PIER 1800            58 60   30/ 22/ 26 1015.6F
NC RESRV MASNBRO 1700            56      10/  5     1016.0S
OCEAN CREST PIER 1800            58 61   40/ 11/ 18 1014.6F
SPRINGMAID  PIER 1800            57 61   10/ 14/ 22 1015.4S


................COASTAL AND OFFSHORE BUOYS................


STATION/POSITION TIME  SKY/WX   TEMP    WIND        PRES    VSBY
                                AIR SEA DIR/SP/G
                 (UTC)          (F)     (DEG/KT/KT) (MB)    (MI)
DIMNDSHOAL 41025 NOT AVBL
CAPE LOOKOUT     1700            59      30/ 30/ 38 1016.7F
ONSLOW BAY 41036 1800            61 68   20/ 21/ 29 1015.9R
WVE H/P(F/S)=  8/ 7 WND WVE H/P(F/S)=  7/ 7 SWL H/P/D(F/S/D)=  2/ 90/ 9

5 WRITEBCH 41038 1700            59 59   50/ 21/ 25 1016.3F
MASONBORO  41110 1800               59                N/A
WVE H/P(F/S)=  6/ 7 WND WVE H/P(F/S)=  7/ 7 SWL H/P/D(F/S/D)=  2/100/11

WILM HARBR 41108 1800               61                N/A
WVE H/P(F/S)=  5/ 7 WND WVE H/P(F/S)=  5/ 7

27WRITEBCH 41037 1700            58      50/ 25/ 29 1015.5F
FRYING PAN 41013 1800            65 67   40/ 23/ 27 1013.3F
WVE H/P(F/S)=  8/ 7 WND WVE H/P(F/S)=  8/ 7

SUNST NRSH 41024 1700            58      10/ 16/ 17 1015.5F
CAPRS NRSH 41029 NOT AVBL
EDISTO     41004 NOT AVBL


..........OFFSHORE BUOYS BEYOND 100 NM OFFSHORE...........
.....IN A TRIANGLE---HAT TO BERMUDA TO BAHAMAS TO HAT.....


STATION/POSITION TIME  SKY/WX   TEMP    WIND        PRES    VSBY
                                AIR SEA DIR/SP/G
                 (UTC)          (F)     (DEG/KT/KT) (MB)    (MI)
150E HAT   41001 NOT AVBL
W BERMUDA  41048 1712            71 70  160/ 10/ 12 1020.6
WVE H/P(F/S)=  7/10 WND WVE H/P(F/S)=  2/ 5 SWL H/P/D(F/S/D)=  7/ 20/10

ATLANTIC S 41049 1651            71 75  110/ 12/ 16 1024.5
WVE H/P(F/S)=  8/ 8 WND WVE H/P(F/S)=  5/ 5 SWL H/P/D(F/S/D)=  7/100/ 8

E BAHAMAS  41046 NOT AVBL
NE BAHAMAS 41047 1703            76 76  150/ 16/ 19 1019.7
WVE H/P(F/S)=  7/ 9 WND WVE H/P(F/S)=  5/ 7 SWL H/P/D(F/S/D)=  5/ 90/ 9

120E CANVRL41010 1800            76 76  210/ 10/ 12 1013.3F
WVE H/P(F/S)=  7/ 6 WND WVE H/P(F/S)=  2/ 4 SWL H/P/D(F/S/D)=  7/180/ 6


END



USA.gov is the U.S. government's official web portal to all federal, state and local government web resources and services.